Weather History for Pine Ridge, SD

Change the Weather History Date:

Sunday, July 21, 2013

  Actual Average Record
Temperature  
Mean Temperature 77 °F 75 °F  
Max Temperature 92 °F 90 °F 103 °F (2012)
Min Temperature 62 °F 59 °F 50 °F (2000)
Degree Days  
Heating Degree Days 0 0  
Month to date heating degree days 0 4  
Since 1 June heating degree days 78 91  
Since 1 July heating degree days 0 4  
Cooling Degree Days 12 10  
Month to date cooling degree days 223 179  
Year to date cooling degree days 323 306  
Since 1 June cooling degree days 306 289  
Growing Degree Days 26 (Base 50)    
Moisture  
Dew Point 56 °F    
Average Humidity 58    
Maximum Humidity 90    
Minimum Humidity 26    
Precipitation  
Precipitation 0.03 in 0.05 in 0.69 in (2010)
Month to date precipitation 1.21 1.50  
Year to date precipitation 11.08 11.17  
Sea Level Pressure  
Sea Level Pressure 29.78 in    
Wind  
Wind Speed 12 mph (South)    
Max Wind Speed 24 mph    
Max Gust Speed 32 mph    
Visibility 10 miles    
Events Rain    
T = Trace of Precipitation, MM = Missing Value Source: NWS Daily Summary

Daily Weather History Graph

Daily Weather History Graph

Search for Another Location

Airport:

Trip Planner

Search our weather history database for the weather conditions in past years. The results will help you decide how hot, cold, wet, or windy it might be!

Date:

Astronomy

Jul. 21, 2013 Rise Set
Actual Time 5:30 AM MDT 8:22 PM MDT
Civil Twilight 4:56 AM MDT 8:55 PM MDT
Nautical Twilight 4:14 AM MDT 9:37 PM MDT
Astronomical Twilight 3:24 AM MDT 10:27 PM MDT
Moon 7:20 PM MDT (7/21) 4:18 AM MDT (7/21)
Length of Visible Light 15h 59m
Length of Day
14h 52m
Waxing Gibbous, 98% of the Moon is Illuminated
Jul 21
Waxing Gibbous
Jul 22
Full
Jul 29
Last Quarter
Aug 6
New
Aug 14
First Quarter

Hourly Weather History & Observations

Time (MDT) Temp. Heat Index Dew Point Humidity Pressure Visibility Wind Dir Wind Speed Gust Speed Precip Events Conditions
12:52 AM 62.1 °F - 59.0 °F 90% 29.83 in 10.0 mi ENE 5.8 mph - N/A   Clear
1:52 AM 63.0 °F - 57.9 °F 84% 29.85 in 10.0 mi ENE 10.4 mph - N/A   Clear
2:52 AM 64.0 °F - 59.0 °F 84% 29.89 in 10.0 mi ENE 6.9 mph - N/A   Scattered Clouds
3:52 AM 62.1 °F - 59.0 °F 90% 29.85 in 10.0 mi SE 20.7 mph 27.6 mph 0.02 in Rain Light Rain
4:52 AM 63.0 °F - 57.0 °F 81% 29.90 in 10.0 mi East 9.2 mph - 0.00 in   Scattered Clouds
5:52 AM 64.0 °F - 55.9 °F 75% 29.90 in 10.0 mi North 4.6 mph - N/A   Mostly Cloudy
6:52 AM 66.0 °F - 54.0 °F 65% 29.88 in 10.0 mi SE 4.6 mph - N/A   Overcast
7:52 AM 64.0 °F - 54.0 °F 70% 29.84 in 10.0 mi South 18.4 mph 28.8 mph 0.01 in Rain Light Rain
8:52 AM 73.0 °F - 54.0 °F 51% 29.83 in 10.0 mi South 17.3 mph 23.0 mph 0.00 in   Clear
9:52 AM 80.1 °F 79.9 °F 53.1 °F 39% 29.81 in 10.0 mi South 21.9 mph 29.9 mph N/A   Clear
10:52 AM 82.9 °F 81.8 °F 53.1 °F 36% 29.81 in 10.0 mi SSW 19.6 mph 27.6 mph N/A   Clear
11:52 AM 87.1 °F - 51.1 °F 29% 29.80 in 10.0 mi South 19.6 mph 32.2 mph N/A   Clear
12:52 PM 88.0 °F - 52.0 °F 29% 29.79 in 10.0 mi SSW 18.4 mph 27.6 mph N/A   Clear
1:52 PM 90.0 °F - 52.0 °F 27% 29.76 in 10.0 mi South 12.7 mph - N/A   Clear
2:52 PM 91.0 °F - 51.1 °F 25% 29.73 in 10.0 mi South 9.2 mph 20.7 mph N/A   Clear
3:52 PM 91.0 °F 88.7 °F 54.0 °F 28% 29.72 in 10.0 mi SW 11.5 mph 18.4 mph N/A   Clear
4:52 PM 91.0 °F 89.7 °F 57.0 °F 32% 29.70 in 10.0 mi South 16.1 mph 21.9 mph N/A   Clear
5:52 PM 91.0 °F 89.7 °F 57.0 °F 32% 29.67 in 10.0 mi SSW 11.5 mph - N/A   Clear
6:52 PM 86.0 °F 85.0 °F 57.9 °F 38% 29.67 in 10.0 mi South 6.9 mph - N/A   Clear
7:52 PM 84.0 °F 83.8 °F 59.0 °F 43% 29.70 in 10.0 mi South 9.2 mph - N/A   Clear
8:52 PM 82.0 °F 82.0 °F 57.9 °F 44% 29.70 in 10.0 mi SSE 6.9 mph - N/A   Partly Cloudy
9:52 PM 81.0 °F 81.1 °F 57.9 °F 45% 29.72 in 10.0 mi WSW 10.4 mph 23.0 mph N/A   Mostly Cloudy
10:52 PM 78.1 °F - 54.0 °F 43% 29.74 in 10.0 mi South 6.9 mph - N/A   Mostly Cloudy
11:52 PM 75.0 °F - 57.9 °F 55% 29.73 in 10.0 mi Calm Calm - N/A   Clear